Location: Hamilton
(43.2500°N, 79.8330°W)
Time: 01:29:21
(UTC-04:00)

Amateur Radio Satellites - All Passes

Search period start: 16 April 2014 00:59
Search period end: 17 April 2014 00:59
Location: Hamilton, 43.2500°N, 79.8330°W

Satellite Date Start Highest point End Downlink Frequencies (MHz)
Time Altitude Azimuth
SO-50 16 Apr 01:14:20 01:18:43 40° 49° (NE) 01:23:08 436.795 FM
PCSat 16 Apr 01:27:02 01:31:46 32° 110° (ESE) 01:36:30 145.825 MHz
OPAL 16 Apr 01:45:27 01:48:57 19° 59° (ENE) 01:52:30 ?
UOSAT-12 16 Apr 02:20:31 02:23:33 17° 36° (NE) 02:26:34 437.025 FM, 437.400 FM
Sapphire 16 Apr 02:24:09 02:29:34 87° 119° (ESE) 02:35:01 437.095 MHz 1200 baud AX-25 AFSK
AO-27 16 Apr 02:25:43 02:29:19 19° 92° (E) 02:32:54 436.795 MHz FM
ITAMSAT 1 16 Apr 02:37:06 02:41:13 24° 94° (E) 02:45:18 435.822 SSB
Oscar 19 16 Apr 02:50:14 02:55:23 59° 101° (E) 03:00:30 437.125 CW, 437.150 USB
SO-50 16 Apr 02:55:13 02:59:08 27° 246° (WSW) 03:03:04 436.795 FM
Oscar 16 16 Apr 02:57:46 03:02:59 74° 103° (ESE) 03:08:10 437.025 USB, Beacon 2401.1428
PCSat 16 Apr 03:09:58 03:15:03 41° 309° (NW) 03:20:10 145.825 MHz
KITSAT 1 16 Apr 03:16:07 03:22:57 31° 107° (ESE) 03:29:48 435.175 FM
OPAL 16 Apr 03:22:27 03:27:23 59° 257° (WSW) 03:32:25 ?
AO-Echo 16 Apr 03:23:36 03:28:19 50° 99° (E) 03:32:54 ?
Uribyol 2 16 Apr 03:25:50 03:31:00 70° 103° (ESE) 03:36:09 436.500 FM
Gurwin Techsat 1B 16 Apr 03:34:49 03:39:15 26° 94° (E) 03:43:39 435.225 FM
UOSAT-12 16 Apr 03:59:39 04:04:25 87° 56° (NE) 04:09:07 437.025 FM, 437.400 FM
AO-27 16 Apr 04:04:08 04:09:12 56° 289° (WNW) 04:14:14 436.795 MHz FM
Sapphire 16 Apr 04:09:58 04:13:44 19° 320° (NW) 04:17:30 437.095 MHz 1200 baud AX-25 AFSK
ITAMSAT 1 16 Apr 04:16:00 04:20:54 45° 291° (WNW) 04:25:47 435.822 SSB
TMSAT-1 16 Apr 04:25:02 04:30:14 54° 100° (E) 04:35:24 436.925 FM
Oscar 19 16 Apr 04:30:37 04:34:17 20° 298° (WNW) 04:37:57 437.125 CW, 437.150 USB
Oscar 10/S400 16 Apr 04:38:26 05:01:49 44° 141° (SE) 13:53:21 145.825 - 145.975 CW/USB, Beacon 145.810 USB
Oscar 16 16 Apr 04:38:38 04:41:44 16° 300° (WNW) 04:44:50 437.025 USB, Beacon 2401.1428
AO-Echo 16 Apr 05:03:17 05:06:43 20° 298° (WNW) 05:10:05 ?
AO-7 16 Apr 05:05:24 05:12:50 35° 97° (E) 05:20:13 29.400 - 29.500 MHz
Uribyol 2 16 Apr 05:06:42 05:09:55 17° 300° (WNW) 05:13:08 436.500 FM
KITSAT 1 16 Apr 05:09:46 05:17:49 65° 307° (NW) 05:25:55 435.175 FM
Gurwin Techsat 1B 16 Apr 05:14:23 05:19:21 42° 291° (WNW) 05:24:18 435.225 FM
Uosat F 16 Apr 05:17:00 05:21:58 60° 102° (ESE) 05:26:53 435.120 FM
JAS-1B 16 Apr 05:27:39 05:33:25 80° 104° (ESE) 05:39:11 435.800 - 435.900 CW/SSB
AO-40 16 Apr 05:40:58 10:53:55 34° 180° (S) 17:35:37 Beacon 2401.320
UOSAT-12 16 Apr 05:42:14 05:43:51 12° 253° (WSW) 05:45:28 437.025 FM, 437.400 FM
RS-15 16 Apr 05:53:24 05:57:01 12° 95° (E) 06:00:36 29.354 - 29.394 USB, Beacon 29.352 USB
STRAND 1 16 Apr 05:55:38 05:59:20 21° 62° (ENE) 06:03:03 ?
TMSAT-1 16 Apr 06:05:49 06:09:46 22° 298° (WNW) 06:13:43 436.925 FM
Uosat F 16 Apr 06:56:56 07:00:17 18° 299° (WNW) 07:03:37 435.120 FM
AO-7 16 Apr 06:57:52 07:05:55 56° 296° (WNW) 07:13:57 29.400 - 29.500 MHz
KITSAT 1 16 Apr 07:09:00 07:14:58 22° 331° (NNW) 07:20:56 435.175 FM
Hamsat 16 Apr 07:18:28 07:22:41 48° 99° (E) 07:26:53 145.90 MHz
JAS-1B 16 Apr 07:20:15 07:23:21 15° 304° (NW) 07:26:25 435.800 - 435.900 CW/SSB
STRAND 1 16 Apr 07:33:07 07:38:08 55° 259° (W) 07:43:10 ?
JAS-2 16 Apr 07:43:02 07:47:33 28° 96° (E) 07:52:21 435.800 - 435.900 CW/SSB, 435.910 FM
MaSat-1 16 Apr 07:55:36 07:58:13 33° 60° (ENE) 08:01:12 437.345 MHz
RS-15 16 Apr 07:55:54 08:06:58 62° 115° (ESE) 08:17:41 29.354 - 29.394 USB, Beacon 29.352 USB
SO-67 16 Apr 08:03:41 08:06:41 26° 96° (E) 08:09:39 435.3500 MHz FM
AO-7 16 Apr 08:53:03 08:56:56 14° 317° (NW) 09:00:49 29.400 - 29.500 MHz
Hamsat 16 Apr 08:55:27 08:58:19 17° 295° (WNW) 09:01:10 145.90 MHz
KITSAT 1 16 Apr 09:10:24 09:14:09 14° 2° (N) 09:17:54 435.175 FM
JAS-2 16 Apr 09:27:54 09:32:46 39° 291° (WNW) 09:37:58 435.800 - 435.900 CW/SSB, 435.910 FM
Sapphire 16 Apr 09:28:49 09:32:25 18° 39° (NE) 09:35:59 437.095 MHz 1200 baud AX-25 AFSK
MaSat-1 16 Apr 09:35:34 09:36:31 11° 251° (WSW) 09:37:29 437.345 MHz
SO-67 16 Apr 09:37:08 09:39:41 19° 292° (WNW) 09:42:14 435.3500 MHz FM
HO-68 16 Apr 09:40:33 09:46:41 30° 95° (E) 09:52:46 435.675 MHz FM
RS-15 16 Apr 10:09:09 10:19:47 46° 320° (NW) 10:30:13 29.354 - 29.394 USB, Beacon 29.352 USB
PCSat 16 Apr 10:13:23 10:18:20 35° 49° (NE) 10:23:16 145.825 MHz
Oscar 11 16 Apr 10:18:38 10:21:57 21° 93° (E) 10:25:14 145.825 FM, Beacon 2401.500 USB
KITSAT 1 16 Apr 11:06:48 11:13:10 24° 32° (NNE) 11:19:28 435.175 FM
Sapphire 16 Apr 11:11:12 11:16:40 86° 60° (ENE) 11:22:04 437.095 MHz 1200 baud AX-25 AFSK
HO-68 16 Apr 11:27:43 11:34:42 56° 293° (WNW) 11:41:40 435.675 MHz FM
FUNcube-1 16 Apr 11:33:32 11:37:33 42° 99° (E) 11:41:38 145.950 - 145.970 MHz USB
Oscar 11 16 Apr 11:54:15 11:58:15 37° 290° (WNW) 12:02:15 145.825 FM, Beacon 2401.500 USB
Saudisat 1A 16 Apr 11:56:46 12:00:29 26° 114° (ESE) 12:04:13 436.775 MHz
PCSat 16 Apr 11:56:48 12:01:47 39° 248° (WSW) 12:06:45 145.825 MHz
RS-15 16 Apr 12:27:25 12:35:51 24° 352° (N) 12:44:15 29.354 - 29.394 USB, Beacon 29.352 USB
Oscar 19 16 Apr 12:32:22 12:34:44 13° 58° (ENE) 12:37:07 437.125 CW, 437.150 USB
Oscar 16 16 Apr 12:39:07 12:42:15 17° 60° (ENE) 12:45:23 437.025 USB, Beacon 2401.1428
Sapphire 16 Apr 12:56:47 12:59:18 13° 257° (WSW) 13:01:48 437.095 MHz 1200 baud AX-25 AFSK
KITSAT 1 16 Apr 13:01:51 13:10:00 76° 56° (NE) 13:18:04 435.175 FM
AO-Echo 16 Apr 13:03:01 13:04:20 11° 57° (ENE) 13:05:39 ?
Uribyol 2 16 Apr 13:08:01 13:11:09 17° 60° (ENE) 13:14:17 436.500 FM
FUNcube-1 16 Apr 13:10:47 13:13:42 19° 295° (WNW) 13:16:39 145.950 - 145.970 MHz USB
HO-68 16 Apr 13:18:21 13:20:54 12° 313° (NW) 13:23:26 435.675 MHz FM
Saudisat 1A 16 Apr 13:35:45 13:39:56 38° 312° (NW) 13:44:08 436.775 MHz
AO-27 16 Apr 13:44:38 13:49:13 33° 66° (ENE) 13:53:49 436.795 MHz FM
ITAMSAT 1 16 Apr 13:55:59 14:00:47 40° 68° (ENE) 14:05:36 435.822 SSB
Oscar 19 16 Apr 14:08:12 14:13:20 89° 257° (WSW) 14:18:32 437.125 CW, 437.150 USB
TMSAT-1 16 Apr 14:10:31 14:13:01 14° 58° (ENE) 14:15:32 436.925 FM
Oscar 16 16 Apr 14:15:54 14:21:01 71° 258° (WSW) 14:26:11 437.025 USB, Beacon 2401.1428
AO-7 16 Apr 14:19:00 14:22:22 13° 41° (NE) 14:25:43 29.400 - 29.500 MHz
JAS-1B 16 Apr 14:26:03 14:30:26 17° 56° (ENE) 14:34:27 435.800 - 435.900 CW/SSB
AO-Echo 16 Apr 14:36:59 14:42:15 75° 74° (ENE) 14:47:25 ?
RS-15 16 Apr 14:43:21 14:52:51 32° 28° (NNE) 15:02:24 29.354 - 29.394 USB, Beacon 29.352 USB
Uribyol 2 16 Apr 14:44:54 14:50:03 72° 257° (WSW) 14:55:13 436.500 FM
Uosat F 16 Apr 14:56:00 14:58:14 13° 58° (ENE) 15:00:29 435.120 FM
Gurwin Techsat 1B 16 Apr 14:56:48 15:01:50 46° 70° (ENE) 15:06:53 435.225 FM
KITSAT 1 16 Apr 14:58:23 15:04:35 25° 256° (WSW) 15:10:46 435.175 FM
AO-27 16 Apr 15:24:02 15:28:41 33° 263° (W) 15:33:22 436.795 MHz FM
OPAL 16 Apr 15:31:22 15:36:04 33° 99° (E) 15:40:44 ?
ITAMSAT 1 16 Apr 15:36:04 15:40:24 27° 265° (W) 15:44:45 435.822 SSB
TMSAT-1 16 Apr 15:46:52 15:52:10 90° 75° (ENE) 15:57:30 436.925 FM
Oscar 19 16 Apr 15:52:20 15:53:24 11° 273° (W) 15:54:29 437.125 CW, 437.150 USB
AO-7 16 Apr 16:05:21 16:13:16 52° 63° (ENE) 16:21:12 29.400 - 29.500 MHz
JAS-1B 16 Apr 16:11:53 16:20:16 78° 73° (ENE) 16:27:14 435.800 - 435.900 CW/SSB
AO-Echo 16 Apr 16:18:44 16:21:31 14° 270° (W) 16:24:17 ?
Uosat F 16 Apr 16:31:16 16:36:18 88° 256° (WSW) 16:41:22 435.120 FM
ISS 16 Apr 16:37:07 16:39:51 24° 136° (SE) 16:42:36 145.800 FM
Gurwin Techsat 1B 16 Apr 16:37:46 16:42:00 24° 267° (W) 16:46:16 435.225 FM
RS-15 16 Apr 16:56:02 17:07:03 83° 55° (NE) 17:18:18 29.354 - 29.394 USB, Beacon 29.352 USB
OPAL 16 Apr 17:10:15 17:14:54 34° 295° (WNW) 17:19:33 ?
SO-50 16 Apr 17:10:30 17:14:58 78° 122° (ESE) 17:19:30 436.795 FM
TMSAT-1 16 Apr 17:31:10 17:32:49 11° 273° (W) 17:34:28 436.925 FM
AO-7 16 Apr 17:58:44 18:06:15 38° 262° (W) 18:13:49 29.400 - 29.500 MHz
JAS-2 16 Apr 17:59:12 18:02:06 14° 59° (ENE) 18:04:53 435.800 - 435.900 CW/SSB, 435.910 FM
JAS-1B 16 Apr 18:05:19 18:11:15 21° 267° (W) 18:16:35 435.800 - 435.900 CW/SSB
UOSAT-12 16 Apr 18:13:07 18:16:26 20° 111° (ESE) 18:19:47 437.025 FM, 437.400 FM
Hamsat 16 Apr 18:13:08 18:17:01 38° 71° (ENE) 18:20:57 145.90 MHz
ISS 16 Apr 18:13:09 18:16:25 50° 333° (NNW) 18:19:43 145.800 FM
Uosat F 16 Apr 18:15:11 18:15:48 10° 272° (W) 18:16:24 435.120 FM
SO-67 16 Apr 18:40:15 18:41:37 12° 65° (ENE) 18:43:00 435.3500 MHz FM
SO-50 16 Apr 18:53:04 18:56:06 18° 322° (NW) 18:59:10 436.795 FM
RS-15 16 Apr 19:09:37 19:18:09 27° 257° (WSW) 19:26:53 29.354 - 29.394 USB, Beacon 29.352 USB
JAS-2 16 Apr 19:40:35 19:46:37 86° 256° (WSW) 19:52:04 435.800 - 435.900 CW/SSB, 435.910 FM
STRAND 1 16 Apr 19:42:39 19:47:34 46° 99° (E) 19:52:26 ?
Hamsat 16 Apr 19:50:11 19:53:10 19° 268° (W) 19:56:11 145.90 MHz
ISS 16 Apr 19:51:08 19:53:45 20° 352° (N) 19:56:21 145.800 FM
UOSAT-12 16 Apr 19:51:45 19:56:12 51° 309° (NW) 20:00:46 437.025 FM, 437.400 FM
HO-68 16 Apr 20:10:59 20:16:40 27° 57° (ENE) 20:22:21 435.675 MHz FM
SO-67 16 Apr 20:11:02 20:14:23 45° 261° (W) 20:17:46 435.3500 MHz FM
Saudisat 1A 16 Apr 20:22:08 20:26:06 31° 46° (NE) 20:30:01 436.775 MHz
Oscar 11 16 Apr 21:15:14 21:18:21 20° 65° (ENE) 21:21:28 145.825 FM, Beacon 2401.500 USB
STRAND 1 16 Apr 21:22:30 21:26:28 24° 297° (WNW) 21:30:26 ?
ISS 16 Apr 21:28:32 21:31:19 23° 13° (NNE) 21:34:05 145.800 FM
JAS-2 16 Apr 21:30:43 21:32:20 11° 271° (W) 21:33:55 435.800 - 435.900 CW/SSB, 435.910 FM
UOSAT-12 16 Apr 21:35:54 21:37:28 12° 330° (NNW) 21:39:03 437.025 FM, 437.400 FM
HO-68 16 Apr 21:56:43 22:03:48 68° 256° (WSW) 22:10:56 435.675 MHz FM
Saudisat 1A 16 Apr 22:01:45 22:05:41 32° 244° (WSW) 22:09:35 436.775 MHz
MaSat-1 16 Apr 22:01:56 22:03:15 12° 110° (ESE) 22:04:30 437.345 MHz
FUNcube-1 16 Apr 22:31:23 22:35:18 38° 71° (ENE) 22:39:11 145.950 - 145.970 MHz USB
Oscar 11 16 Apr 22:50:13 22:54:16 40° 262° (W) 22:58:22 145.825 FM, Beacon 2401.500 USB
ISS 16 Apr 23:05:06 23:08:28 78° 32° (NNE) 23:11:50 145.800 FM
MaSat-1 16 Apr 23:39:08 23:41:33 23° 301° (WNW) 23:43:46 437.345 MHz
HO-68 16 Apr 23:51:18 23:52:47 11° 275° (W) 23:54:16 435.675 MHz FM
SO-50 17 Apr 00:01:39 00:04:39 17° 37° (NE) 00:07:40 436.795 FM
FUNcube-1 17 Apr 00:08:54 00:11:53 19° 267° (W) 00:14:51 145.950 - 145.970 MHz USB
ISS 17 Apr 00:42:57 00:44:49 14° 228° (SW) 00:46:42 145.800 FM
